Date String (YYYY-MM-DD hh:mm:ss) UTC,Instrument flags,Ambient pressure (hPa),Sample flow (lpm),Bypass flow (lpm),Sample temperature (°C),Ambient temperature (°C),ASC tube jacket temperature (°C),LED temperature (°C),Box temperature (°C),Sample RH (%),Span deviation,Mass concentration (μg/m³),Mass concentration (μg/m³),Mass concentration (μg/m³)
DateTimeUTC,F1_M11,P_M11,Q1_M11,Q2_M11,T1_M11,T2_M11,T3_M11,T4_M11,T5_M11,U1_M11,ZSPAN_M11,X0_M11,X2_M11,X1_M11
2023-02-21 14:00:00,,0806.8,4.99,0.00,22.4,21.3,00.0,31.2,24.2,12.0,0000.0,0009.91,0002.02,0000.37
2023-02-21 14:01:00,,0806.8,5.00,0.00,22.4,21.1,00.0,31.2,24.1,11.9,0000.0,0010.36,0002.06,0000.36
2023-02-21 14:02:00,,0806.8,4.99,0.00,22.4,20.9,00.0,31.2,24.0,11.9,0000.0,0010.79,0002.11,0000.37
2023-02-21 14:03:00,,0806.7,5.00,0.00,22.4,20.8,00.0,31.2,24.0,11.9,0000.0,0010.49,0002.14,0000.37
2023-02-21 14:04:00,,0807.0,5.01,0.00,22.3,20.8,00.0,31.2,23.9,12.1,0000.0,0011.36,0002.13,0000.37
2023-02-21 14:05:00,,0807.0,4.99,0.00,22.3,20.8,00.0,31.2,23.9,12.2,0000.0,0011.67,0002.14,0000.38
2023-02-21 14:06:00,,0806.9,4.99,0.00,22.3,20.7,00.0,31.2,23.9,12.2,0000.0,0011.74,0002.18,0000.39
2023-02-21 14:07:00,,0806.8,4.98,0.00,22.3,20.7,00.0,31.2,23.9,12.1,0000.0,0011.73,0002.15,0000.39
2023-02-21 14:08:00,,0806.8,5.01,0.00,22.2,20.6,00.0,31.2,23.9,12.2,0000.0,0010.40,0001.80,0000.36
2023-02-21 14:09:00,,0806.9,5.01,0.00,22.2,20.6,00.0,31.2,23.8,12.4,0000.0,0008.41,0001.26,0000.33
2023-02-21 14:10:00,,0806.8,4.99,0.00,22.2,20.6,00.0,31.2,23.8,12.1,0000.0,0007.96,0001.18,0000.33
2023-02-21 14:11:00,,0806.6,5.00,0.00,22.2,20.5,00.0,31.2,23.8,12.2,0000.0,0007.56,0001.16,0000.33
2023-02-21 14:12:00,,0806.7,4.99,0.00,22.1,20.5,00.0,31.1,23.8,12.0,0000.0,0006.86,0001.11,0000.35
2023-02-21 14:13:00,,0806.7,5.01,0.00,22.1,20.4,00.0,31.1,23.8,12.0,0000.0,0005.90,0001.07,0000.35
2023-02-21 14:14:00,,0806.8,5.00,0.00,22.1,20.3,00.0,31.1,23.7,11.9,0000.0,0004.64,0000.95,0000.33
2023-02-21 14:15:00,,0807.1,5.01,0.00,22.0,20.2,00.0,31.1,23.7,12.0,0000.0,0002.48,0000.85,0000.33
2023-02-21 14:16:00,,0807.2,5.01,0.00,22.1,20.9,00.0,31.0,23.8,12.3,0000.0,0001.93,0000.83,0000.33
2023-02-21 14:17:00,,0807.3,5.01,0.00,22.2,22.2,00.0,31.0,24.1,12.9,0000.0,0001.84,0000.82,0000.34
2023-02-21 14:18:00,,0807.4,5.01,0.00,22.3,23.1,00.0,31.0,24.4,12.8,0000.0,0001.72,0000.81,0000.36
2023-02-21 14:19:00,,0807.4,4.99,0.00,22.4,22.5,00.0,31.1,24.2,12.9,0000.0,0001.64,0000.79,0000.39
2023-02-21 14:20:00,,0807.4,5.00,0.00,22.3,21.8,00.0,31.1,24.0,13.1,0000.0,0001.68,0000.80,0000.41
2023-02-21 14:21:00,,0807.4,5.00,0.00,22.3,21.3,00.0,31.1,23.9,12.8,0000.0,0001.69,0000.82,0000.44
2023-02-21 14:22:00,,0807.3,5.01,0.00,22.2,21.0,00.0,31.1,23.8,12.7,0000.0,0001.80,0000.88,0000.47
2023-02-21 14:23:00,,0807.3,5.00,0.00,22.1,20.7,00.0,31.1,23.7,12.5,0000.0,0001.79,0000.90,0000.49
2023-02-21 14:24:00,,0807.4,4.99,0.00,22.1,20.5,00.0,31.1,23.6,12.4,0000.0,0001.72,0000.88,0000.50
2023-02-21 14:25:00,,0807.4,5.00,0.00,22.0,20.3,00.0,31.1,23.6,12.2,0000.0,0001.67,0000.89,0000.52
2023-02-21 14:26:00,,0807.4,5.01,0.00,22.0,20.2,00.0,31.1,23.6,12.2,0000.0,0001.65,0000.92,0000.53
2023-02-21 14:27:00,,0807.4,5.02,0.00,22.0,20.2,00.0,31.1,23.6,12.3,0000.0,0001.61,0000.92,0000.54
2023-02-21 14:28:00,,0807.4,5.01,0.00,21.9,20.1,00.0,31.1,23.6,12.2,0000.0,0001.53,0000.87,0000.52
2023-02-21 14:29:00,,0807.4,5.00,0.00,21.9,20.1,00.0,31.1,23.6,12.3,0000.0,0001.55,0000.87,0000.51
2023-02-21 14:30:00,,0807.4,5.00,0.00,21.9,20.1,00.0,31.0,23.6,12.4,0000.0,0001.50,0000.84,0000.49
2023-02-21 14:31:00,,0807.2,4.99,0.00,21.9,20.2,00.0,31.0,23.6,12.3,0000.0,0001.33,0000.78,0000.47
2023-02-21 14:32:00,,0807.2,5.00,0.00,21.9,20.2,00.0,31.0,23.6,12.2,0000.0,0001.22,0000.72,0000.45
2023-02-21 14:33:00,,0807.1,5.00,0.00,21.9,20.1,00.0,31.0,23.6,12.1,0000.0,0001.14,0000.68,0000.42
2023-02-21 14:34:00,,0807.2,5.01,0.00,21.9,20.1,00.0,31.0,23.5,12.2,0000.0,0001.14,0000.64,0000.39
2023-02-21 14:35:00,,0807.2,4.99,0.00,21.9,20.0,00.0,30.9,23.5,12.3,0000.0,0001.19,0000.64,0000.39
2023-02-21 14:36:00,,0807.1,5.00,0.00,21.8,19.9,00.0,30.9,23.4,12.4,0000.0,0001.16,0000.62,0000.39
2023-02-21 14:37:00,,0807.2,5.00,0.00,21.9,20.9,00.0,30.9,23.7,12.9,0000.0,0001.13,0000.60,0000.39
2023-02-21 14:38:00,,0807.2,5.01,0.00,22.0,22.3,00.0,30.8,24.0,12.9,0000.0,0001.11,0000.59,0000.39
2023-02-21 14:39:00,,0807.1,5.01,0.00,22.1,22.4,00.0,30.9,24.1,12.9,0000.0,0001.15,0000.60,0000.40
2023-02-21 14:40:00,,0807.1,5.04,0.00,22.2,22.0,00.0,30.9,24.1,12.7,0000.0,0001.25,0000.64,0000.41
2023-02-21 14:41:00,,0807.0,4.99,0.00,22.2,21.6,00.0,31.0,24.0,12.4,0000.0,0001.28,0000.65,0000.40
2023-02-21 14:42:00,,0807.1,5.00,0.00,22.2,21.3,00.0,31.0,24.0,12.0,0000.0,0001.33,0000.67,0000.40
2023-02-21 14:43:00,,0807.1,5.00,0.00,22.2,21.1,00.0,31.0,23.9,12.1,0000.0,0001.33,0000.66,0000.39
2023-02-21 14:44:00,,0807.1,5.01,0.00,22.2,21.0,00.0,31.0,24.0,12.3,0000.0,0001.39,0000.71,0000.39
2023-02-21 14:45:00,,0807.2,4.99,0.00,22.2,20.8,00.0,31.0,23.9,11.9,0000.0,0001.62,0000.71,0000.39
2023-02-21 14:46:00,,0807.1,5.00,0.00,22.2,20.7,00.0,31.0,23.9,11.8,0000.0,0001.79,0000.70,0000.38
2023-02-21 14:47:00,,0807.2,5.01,0.00,22.2,20.7,00.0,31.0,23.9,11.6,0000.0,0002.25,0000.70,0000.36
2023-02-21 14:48:00,,0807.1,5.00,0.00,22.2,20.6,00.0,31.0,23.9,11.6,0000.0,0002.68,0000.67,0000.34
2023-02-21 14:49:00,,0807.2,5.00,0.00,22.1,20.6,00.0,31.0,23.9,11.8,0000.0,0002.64,0000.65,0000.33
2023-02-21 14:50:00,,0807.2,5.00,0.00,22.1,20.6,00.0,31.0,23.9,11.8,0000.0,0002.59,0000.62,0000.31
2023-02-21 14:51:00,,0807.1,5.00,0.00,22.1,20.5,00.0,31.0,23.9,11.7,0000.0,0002.45,0000.57,0000.30
2023-02-21 14:52:00,,0806.8,5.01,0.00,22.1,20.5,00.0,31.0,23.8,12.5,0000.0,0002.36,0000.54,0000.28
2023-02-21 14:53:00,,0806.6,5.00,0.00,22.1,20.4,00.0,31.0,23.8,12.7,0000.0,0002.45,0000.57,0000.28
2023-02-21 14:54:00,,0806.6,5.00,0.00,22.1,20.4,00.0,31.0,23.8,12.2,0000.0,0002.44,0000.57,0000.28
2023-02-21 14:55:00,,0806.7,5.01,0.00,22.1,20.3,00.0,31.0,23.8,11.6,0000.0,0002.34,0000.50,0000.27
2023-02-21 14:56:00,,0806.7,5.01,0.00,22.0,20.3,00.0,31.0,23.8,11.8,0000.0,0002.16,0000.54,0000.27
2023-02-21 14:57:00,,0806.4,5.00,0.00,22.0,20.3,00.0,31.0,23.8,12.2,0000.0,0002.18,0000.57,0000.28
2023-02-21 14:58:00,,0806.2,4.99,0.00,22.0,20.3,00.0,31.0,23.7,12.7,0000.0,0002.11,0000.59,0000.29
2023-02-21 14:59:00,,0806.3,4.99,0.00,22.0,20.3,00.0,31.0,23.7,12.7,0000.0,0001.79,0000.64,0000.30
